Time,TemperatureF,DewpointF,PressureIn,WindDirection,WindDirectionDegrees,WindSpeedMPH,WindSpeedGustMPH,Humidity,HourlyPrecipIn,Conditions,Clouds,dailyrainin,SoftwareType,DateUTC
2013-02-01 00:02:00,-2.4,-6.0,30.27,WNW,290,9.0,11.0,83,0.00,,,0.00,weatherlink.com 1.10,2013-02-01 06:02:00,
2013-02-01 00:17:00,-2.4,-6.0,30.27,West,262,6.0,14.0,83,0.00,,,0.00,weatherlink.com 1.10,2013-02-01 06:17:00,
2013-02-01 00:32:00,-2.5,-6.0,30.28,West,263,8.0,13.0,83,0.00,,,0.00,weatherlink.com 1.10,2013-02-01 06:32:00,
2013-02-01 00:47:00,-2.8,-7.0,30.28,West,259,4.0,13.0,83,0.00,,,0.00,weatherlink.com 1.10,2013-02-01 06:47:00,
2013-02-01 01:02:00,-3.1,-7.0,30.29,WSW,256,4.0,8.0,83,0.00,,,0.00,weatherlink.com 1.10,2013-02-01 07:02:00,
2013-02-01 01:17:00,-3.2,-7.0,30.30,WSW,257,3.0,10.0,83,0.00,,,0.00,weatherlink.com 1.10,2013-02-01 07:17:00,
2013-02-01 01:47:00,-3.5,-7.0,30.31,West,263,7.0,12.0,83,0.00,,,0.00,weatherlink.com 1.10,2013-02-01 07:47:00,
2013-02-01 02:02:00,-3.7,-8.0,30.32,West,274,4.0,11.0,83,0.00,,,0.00,weatherlink.com 1.10,2013-02-01 08:02:00,
2013-02-01 02:17:00,-4.0,-8.0,30.32,West,275,6.0,8.0,84,0.00,,,0.00,weatherlink.com 1.10,2013-02-01 08:17:00,
2013-02-01 02:32:00,-4.3,-8.0,30.32,WSW,257,7.0,9.0,84,0.00,,,0.00,weatherlink.com 1.10,2013-02-01 08:32:00,
2013-02-01 02:47:00,-4.5,-8.0,30.33,West,280,6.0,11.0,84,0.00,,,0.00,weatherlink.com 1.10,2013-02-01 08:47:00,
2013-02-01 03:02:00,-4.6,-8.0,30.33,West,265,5.0,8.0,84,0.00,,,0.00,weatherlink.com 1.10,2013-02-01 09:02:00,
2013-02-01 03:17:00,-4.6,-9.0,30.34,WNW,282,3.0,10.0,83,0.00,,,0.00,weatherlink.com 1.10,2013-02-01 09:17:00,
2013-02-01 03:33:00,-4.7,-8.0,30.34,West,277,3.0,9.0,84,0.00,,,0.00,weatherlink.com 1.10,2013-02-01 09:33:00,
2013-02-01 03:48:00,-5.0,-8.0,30.34,WSW,258,1.0,5.0,85,0.00,,,0.00,weatherlink.com 1.10,2013-02-01 09:48:00,
2013-02-01 04:03:00,-5.1,-9.0,30.34,WNW,287,3.0,9.0,85,0.00,,,0.00,weatherlink.com 1.10,2013-02-01 10:03:00,
2013-02-01 04:18:00,-5.4,-9.0,30.34,West,263,3.0,5.0,85,0.00,,,0.00,weatherlink.com 1.10,2013-02-01 10:18:00,
2013-02-01 04:33:00,-5.7,-9.0,30.34,West,271,1.0,5.0,85,0.00,,,0.00,weatherlink.com 1.10,2013-02-01 10:33:00,
2013-02-01 04:48:00,-5.9,-9.0,30.35,West,281,3.0,6.0,85,0.00,,,0.00,weatherlink.com 1.10,2013-02-01 10:48:00,
2013-02-01 05:03:00,-6.2,-10.0,30.35,West,259,2.0,5.0,85,0.00,,,0.00,weatherlink.com 1.10,2013-02-01 11:03:00,
2013-02-01 05:18:00,-6.3,-10.0,30.36,WSW,246,2.0,4.0,85,0.00,,,0.00,weatherlink.com 1.10,2013-02-01 11:18:00,
2013-02-01 05:34:00,-6.4,-10.0,30.36,West,263,3.0,6.0,85,0.00,,,0.00,weatherlink.com 1.10,2013-02-01 11:34:00,
2013-02-01 05:48:00,-6.4,-10.0,30.37,West,262,5.0,7.0,85,0.00,,,0.00,weatherlink.com 1.10,2013-02-01 11:48:00,
2013-02-01 06:03:00,-6.4,-10.0,30.38,SW,233,5.0,10.0,84,0.00,,,0.00,weatherlink.com 1.10,2013-02-01 12:03:00,
2013-02-01 06:19:00,-6.5,-10.0,30.38,WNW,300,6.0,8.0,84,0.00,,,0.00,weatherlink.com 1.10,2013-02-01 12:19:00,
2013-02-01 06:33:00,-6.7,-10.0,30.38,West,266,4.0,8.0,84,0.00,,,0.00,weatherlink.com 1.10,2013-02-01 12:33:00,
2013-02-01 06:49:00,-7.0,-11.0,30.38,West,264,6.0,7.0,84,0.00,,,0.00,weatherlink.com 1.10,2013-02-01 12:49:00,
2013-02-01 07:04:00,-7.0,-11.0,30.38,WSW,252,4.0,7.0,84,0.00,,,0.00,weatherlink.com 1.10,2013-02-01 13:04:00,
2013-02-01 07:19:00,-7.3,-11.0,30.39,WSW,256,5.0,7.0,84,0.00,,,0.00,weatherlink.com 1.10,2013-02-01 13:19:00,
2013-02-01 07:34:00,-7.2,-11.0,30.39,West,259,4.0,9.0,84,0.00,,,0.00,weatherlink.com 1.10,2013-02-01 13:34:00,
2013-02-01 07:49:00,-6.7,-11.0,30.38,WNW,284,1.0,7.0,83,0.00,,,0.00,weatherlink.com 1.10,2013-02-01 13:49:00,
2013-02-01 08:04:00,-6.3,-10.0,30.39,WNW,288,4.0,6.0,82,0.00,,,0.00,weatherlink.com 1.10,2013-02-01 14:04:00,
2013-02-01 08:19:00,-5.8,-10.0,30.38,West,260,3.0,6.0,82,0.00,,,0.00,weatherlink.com 1.10,2013-02-01 14:19:00,
2013-02-01 08:34:00,-5.5,-10.0,30.39,NW,314,3.0,10.0,81,0.00,,,0.00,weatherlink.com 1.10,2013-02-01 14:34:00,
2013-02-01 08:49:00,-5.1,-10.0,30.40,West,263,6.0,10.0,80,0.00,,,0.00,weatherlink.com 1.10,2013-02-01 14:49:00,
2013-02-01 09:04:00,-4.9,-10.0,30.40,West,274,4.0,9.0,79,0.00,,,0.00,weatherlink.com 1.10,2013-02-01 15:04:00,
2013-02-01 09:19:00,-4.4,-10.0,30.40,WNW,288,3.0,8.0,78,0.00,,,0.00,weatherlink.com 1.10,2013-02-01 15:19:00,
2013-02-01 09:34:00,-3.9,-9.0,30.40,NNW,329,3.0,9.0,78,0.00,,,0.00,weatherlink.com 1.10,2013-02-01 15:34:00,
2013-02-01 09:49:00,-3.2,-8.0,30.40,West,274,1.0,9.0,78,0.00,,,0.00,weatherlink.com 1.10,2013-02-01 15:49:00,
2013-02-01 10:04:00,-3.4,-9.0,30.40,West,267,5.0,7.0,77,0.00,,,0.00,weatherlink.com 1.10,2013-02-01 16:04:00,
2013-02-01 10:20:00,-2.8,-8.0,30.40,WNW,285,3.0,6.0,77,0.00,,,0.00,weatherlink.com 1.10,2013-02-01 16:20:00,
2013-02-01 10:50:00,-2.4,-8.0,30.40,WSW,253,5.0,7.0,76,0.00,,,0.00,weatherlink.com 1.10,2013-02-01 16:50:00,
2013-02-01 11:05:00,-1.7,-8.0,30.40,West,268,4.0,8.0,75,0.00,,,0.00,weatherlink.com 1.10,2013-02-01 17:05:00,
2013-02-01 11:20:00,-0.8,-7.0,30.40,WSW,239,6.0,10.0,76,0.00,,,0.00,weatherlink.com 1.10,2013-02-01 17:20:00,
2013-02-01 11:35:00,-0.7,-7.0,30.39,SW,236,3.0,10.0,75,0.00,,,0.00,weatherlink.com 1.10,2013-02-01 17:35:00,
2013-02-01 11:50:00,-0.9,-7.0,30.39,SW,233,5.0,11.0,74,0.00,,,0.00,weatherlink.com 1.10,2013-02-01 17:50:00,
2013-02-01 12:05:00,-0.7,-7.0,30.38,West,273,5.0,11.0,74,0.00,,,0.00,weatherlink.com 1.10,2013-02-01 18:05:00,
2013-02-01 12:20:00,-0.2,-7.0,30.37,West,266,5.0,12.0,74,0.00,,,0.00,weatherlink.com 1.10,2013-02-01 18:20:00,
2013-02-01 12:36:00,0.6,-6.0,30.36,West,276,4.0,10.0,75,0.00,,,0.00,weatherlink.com 1.10,2013-02-01 18:36:00,
2013-02-01 12:50:00,1.0,-6.0,30.36,WSW,257,6.0,10.0,74,0.00,,,0.00,weatherlink.com 1.10,2013-02-01 18:50:00,
2013-02-01 13:05:00,1.5,-5.0,30.36,SW,232,4.0,10.0,73,0.00,,,0.00,weatherlink.com 1.10,2013-02-01 19:05:00,
2013-02-01 13:20:00,2.6,-4.0,30.35,WSW,253,2.0,9.0,73,0.00,,,0.00,weatherlink.com 1.10,2013-02-01 19:20:00,
2013-02-01 13:36:00,2.3,-5.0,30.34,West,264,2.0,10.0,73,0.00,,,0.00,weatherlink.com 1.10,2013-02-01 19:36:00,
2013-02-01 13:51:00,2.6,-5.0,30.33,WSW,255,3.0,9.0,70,0.00,,,0.00,weatherlink.com 1.10,2013-02-01 19:51:00,
2013-02-01 14:06:00,3.6,-4.0,30.32,WSW,256,6.0,8.0,72,0.00,,,0.00,weatherlink.com 1.10,2013-02-01 20:06:00,
2013-02-01 14:21:00,4.2,-4.0,30.32,West,275,4.0,8.0,70,0.00,,,0.00,weatherlink.com 1.10,2013-02-01 20:21:00,
2013-02-01 14:36:00,5.1,-2.0,30.31,West,264,3.0,7.0,72,0.00,,,0.00,weatherlink.com 1.10,2013-02-01 20:36:00,
2013-02-01 14:51:00,5.8,-1.0,30.30,SW,222,2.0,7.0,74,0.00,,,0.00,weatherlink.com 1.10,2013-02-01 20:51:00,
2013-02-01 15:06:00,6.0,-2.0,30.31,West,260,4.0,12.0,71,0.00,,,0.00,weatherlink.com 1.10,2013-02-01 21:06:00,
2013-02-01 15:21:00,5.4,-2.0,30.32,SW,225,10.0,11.0,71,0.00,,,0.00,weatherlink.com 1.10,2013-02-01 21:21:00,
2013-02-01 15:36:00,5.6,-2.0,30.31,SSW,208,6.0,11.0,72,0.00,,,0.00,weatherlink.com 1.10,2013-02-01 21:36:00,
2013-02-01 16:06:00,5.2,-1.0,30.29,SSW,209,6.0,12.0,74,0.00,,,0.00,weatherlink.com 1.10,2013-02-01 22:06:00,
2013-02-01 16:21:00,5.3,-1.0,30.29,WSW,242,6.0,9.0,75,0.00,,,0.00,weatherlink.com 1.10,2013-02-01 22:21:00,
2013-02-01 16:36:00,5.0,-1.0,30.29,SW,215,4.0,12.0,76,0.00,,,0.00,weatherlink.com 1.10,2013-02-01 22:36:00,
2013-02-01 16:52:00,4.5,-1.0,30.28,SSW,193,3.0,8.0,79,0.00,,,0.00,weatherlink.com 1.10,2013-02-01 22:52:00,
2013-02-01 17:07:00,4.5,-1.0,30.28,WSW,245,2.0,8.0,78,0.00,,,0.00,weatherlink.com 1.10,2013-02-01 23:07:00,
2013-02-01 17:22:00,4.6,0.0,30.27,SW,217,3.0,7.0,81,0.00,,,0.00,weatherlink.com 1.10,2013-02-01 23:22:00,
2013-02-01 17:37:00,4.5,0.0,30.27,SSW,210,4.0,9.0,81,0.00,,,0.00,weatherlink.com 1.10,2013-02-01 23:37:00,
2013-02-01 17:52:00,4.6,0.0,30.26,WSW,248,3.0,5.0,82,0.00,,,0.00,weatherlink.com 1.10,2013-02-01 23:52:00,
2013-02-01 18:07:00,4.8,0.0,30.25,SW,225,4.0,10.0,81,0.00,,,0.00,weatherlink.com 1.10,2013-02-02 00:07:00,
2013-02-01 18:22:00,4.9,0.0,30.24,SW,228,0.0,10.0,81,0.00,,,0.00,weatherlink.com 1.10,2013-02-02 00:22:00,
2013-02-01 18:37:00,5.1,1.0,30.25,SW,231,3.0,8.0,82,0.00,,,0.00,weatherlink.com 1.10,2013-02-02 00:37:00,
2013-02-01 18:52:00,5.3,1.0,30.24,SSW,195,2.0,8.0,82,0.00,,,0.00,weatherlink.com 1.10,2013-02-02 00:52:00,
2013-02-01 19:07:00,5.5,1.0,30.24,SSW,210,3.0,6.0,83,0.00,,,0.00,weatherlink.com 1.10,2013-02-02 01:07:00,
2013-02-01 19:22:00,5.7,2.0,30.23,SSW,198,0.0,5.0,84,0.00,,,0.00,weatherlink.com 1.10,2013-02-02 01:22:00,
2013-02-01 19:37:00,6.0,3.0,30.23,SSW,201,1.0,5.0,85,0.00,,,0.00,weatherlink.com 1.10,2013-02-02 01:37:00,
2013-02-01 19:52:00,6.0,3.0,30.22,South,183,4.0,6.0,87,0.00,,,0.00,weatherlink.com 1.10,2013-02-02 01:52:00,
2013-02-01 20:07:00,6.2,4.0,30.22,SSE,160,0.0,5.0,89,0.00,,,0.00,weatherlink.com 1.10,2013-02-02 02:07:00,
2013-02-01 20:22:00,6.4,4.0,30.21,SSE,159,0.0,3.0,90,0.00,,,0.00,weatherlink.com 1.10,2013-02-02 02:22:00,
2013-02-01 20:38:00,6.7,4.0,30.21,SSW,194,1.0,3.0,90,0.00,,,0.00,weatherlink.com 1.10,2013-02-02 02:38:00,
2013-02-01 20:53:00,7.0,5.0,30.21,SSW,203,0.0,2.0,91,0.00,,,0.00,weatherlink.com 1.10,2013-02-02 02:53:00,
2013-02-01 21:08:00,7.3,5.0,30.21,SE,144,0.0,1.0,91,0.00,,,0.00,weatherlink.com 1.10,2013-02-02 03:08:00,
2013-02-01 21:23:00,7.5,6.0,30.21,ESE,112,0.0,1.0,91,0.00,,,0.00,weatherlink.com 1.10,2013-02-02 03:23:00,
2013-02-01 21:38:00,7.6,6.0,30.20,East,82,0.0,2.0,91,0.00,,,0.00,weatherlink.com 1.10,2013-02-02 03:38:00,
2013-02-01 21:53:00,7.9,6.0,30.20,East,96,0.0,2.0,92,0.00,,,0.00,weatherlink.com 1.10,2013-02-02 03:53:00,
2013-02-01 22:08:00,8.1,7.0,30.19,East,86,0.0,3.0,93,0.00,,,0.00,weatherlink.com 1.10,2013-02-02 04:08:00,
2013-02-01 22:23:00,8.4,7.0,30.18,SE,125,1.0,1.0,93,0.00,,,0.00,weatherlink.com 1.10,2013-02-02 04:23:00,
2013-02-01 22:38:00,8.4,7.0,30.17,SE,128,0.0,1.0,93,0.00,,,0.00,weatherlink.com 1.10,2013-02-02 04:38:00,
2013-02-01 22:53:00,8.5,7.0,30.17,SE,136,1.0,2.0,93,0.00,,,0.00,weatherlink.com 1.10,2013-02-02 04:53:00,
2013-02-01 23:08:00,8.5,7.0,30.16,East,98,0.0,2.0,93,0.00,,,0.00,weatherlink.com 1.10,2013-02-02 05:08:00,
2013-02-01 23:23:00,8.8,7.0,30.15,East,93,0.0,3.0,93,0.00,,,0.00,weatherlink.com 1.10,2013-02-02 05:23:00,
2013-02-01 23:38:00,9.2,8.0,30.14,SSE,151,0.0,2.0,93,0.00,,,0.00,weatherlink.com 1.10,2013-02-02 05:38:00,
2013-02-01 23:54:00,9.7,8.0,30.13,SSE,152,0.0,4.0,93,0.00,,,0.00,weatherlink.com 1.10,2013-02-02 05:54:00,